TimeCDT,TemperatureF,Dew PointF,Humidity,Sea Level PressureIn,VisibilityMPH,Wind Direction,Wind SpeedMPH,Gust SpeedMPH,PrecipitationIn,Events,Conditions,WindDirDegrees,DateUTC
12:53 AM,70.0,64.9,84,29.78,10.0,NNW,10.4,23.0,N/A,,Mostly Cloudy,330,2012-09-30 05:53:00
1:53 AM,70.0,64.9,84,29.77,10.0,NW,12.7,19.6,N/A,,Overcast,320,2012-09-30 06:53:00
2:53 AM,69.1,64.0,84,29.76,10.0,NNW,13.8,25.3,N/A,,Overcast,340,2012-09-30 07:53:00
3:53 AM,69.1,64.0,84,29.76,10.0,NW,15.0,-,N/A,,Overcast,320,2012-09-30 08:53:00
4:53 AM,69.1,63.0,81,29.76,10.0,NW,13.8,20.7,N/A,,Overcast,320,2012-09-30 09:53:00
5:53 AM,66.9,63.0,87,29.77,10.0,NNW,15.0,25.3,N/A,,Mostly Cloudy,330,2012-09-30 10:53:00
6:15 AM,68.0,62.6,83,29.82,10.0,NNW,11.5,25.3,N/A,,Mostly Cloudy,330,2012-09-30 11:15:00
6:33 AM,68.0,62.6,83,29.82,10.0,NNW,11.5,21.9,N/A,,Mostly Cloudy,330,2012-09-30 11:33:00
6:53 AM,66.9,63.0,87,29.78,10.0,NNW,16.1,23.0,N/A,,Mostly Cloudy,330,2012-09-30 11:53:00
7:53 AM,68.0,63.0,84,29.81,10.0,NNW,10.4,-,N/A,,Scattered Clouds,330,2012-09-30 12:53:00
8:53 AM,69.8,62.6,78,29.88,10.0,NNW,12.7,-,N/A,,Overcast,340,2012-09-30 13:53:00
9:44 AM,71.6,62.6,73,29.89,10.0,NNW,17.3,29.9,N/A,,Scattered Clouds,330,2012-09-30 14:44:00
9:53 AM,73.0,63.0,71,29.84,10.0,NNW,19.6,25.3,N/A,,Scattered Clouds,330,2012-09-30 14:53:00
10:22 AM,75.2,62.6,65,29.89,10.0,NNW,16.1,24.2,N/A,,Mostly Cloudy,330,2012-09-30 15:22:00
10:42 AM,75.2,62.6,65,29.90,10.0,NNW,18.4,24.2,N/A,,Mostly Cloudy,340,2012-09-30 15:42:00
10:53 AM,73.9,63.0,68,29.86,10.0,NNW,19.6,28.8,N/A,,Overcast,340,2012-09-30 15:53:00
11:53 AM,75.0,63.0,66,29.84,10.0,NNW,16.1,24.2,N/A,,Overcast,340,2012-09-30 16:53:00
12:53 PM,78.1,64.0,62,29.84,10.0,NNW,16.1,25.3,N/A,,Mostly Cloudy,330,2012-09-30 17:53:00
1:53 PM,78.1,63.0,60,29.81,10.0,NNW,20.7,27.6,N/A,,Mostly Cloudy,340,2012-09-30 18:53:00
2:53 PM,80.1,63.0,56,29.79,10.0,North,17.3,27.6,N/A,,Mostly Cloudy,350,2012-09-30 19:53:00
3:53 PM,78.1,63.0,60,29.78,10.0,NNW,20.7,33.4,N/A,,Mostly Cloudy,340,2012-09-30 20:53:00
4:53 PM,80.1,64.0,58,29.78,10.0,North,15.0,23.0,N/A,,Scattered Clouds,360,2012-09-30 21:53:00
5:53 PM,79.0,62.1,56,29.78,10.0,North,16.1,25.3,N/A,,Scattered Clouds,10,2012-09-30 22:53:00
6:53 PM,77.0,62.1,60,29.79,10.0,North,8.1,-,N/A,,Scattered Clouds,360,2012-09-30 23:53:00
7:53 PM,73.9,61.0,64,29.80,10.0,North,8.1,-,N/A,,Partly Cloudy,360,2012-10-01 00:53:00
8:53 PM,72.0,63.0,73,29.82,10.0,NNE,5.8,-,N/A,,Clear,30,2012-10-01 01:53:00
9:53 PM,71.1,63.0,75,29.86,10.0,NNE,9.2,-,N/A,,Clear,20,2012-10-01 02:53:00
10:53 PM,66.9,63.0,87,29.87,10.0,NNW,4.6,-,N/A,,Scattered Clouds,340,2012-10-01 03:53:00
11:53 PM,68.0,62.1,81,29.86,10.0,NNE,8.1,-,N/A,,Scattered Clouds,20,2012-10-01 04:53:00